Regional Weather Roundup
Issued by NWS

Home | Current Version | Previous Version | Text Only | Print | Product List | Glossary On
Versions: 1 2 3 4 5 6 7 8 9 10 11 12 13 14 15 16 17 18 19 20 21 22 23 24 25 26 27 28 29 30 31 32 33 34 35 36 37 38 39 40 41 42 43 44 45 46 47 48 49 50
000
ASUS44 KJAN 251310
RWRMS

MISSISSIPPI HOURLY WEATHER ROUNDUP
NATIONAL WEATHER SERVICE JACKSON MS
700 AM CST THU DEC 25 2014

NOTE: "FAIR: INDICATES FEW OR NO CLOUDS BELOW 12,000 FEET WITH NO
SIGNIFICANT WEATHER AND/OR OBSTRUCTIONS TO VISIBILITY.

MSZ001>002-007>008-010>013-018>021-025>028-034>036-251400-
NORTHWEST MISSISSIPPI

CITY           SKY/WX    TMP DP  RH WIND       PRES   REMARKS
CLARKSDALE     FAIR      32  32 100 S3        30.18R
CLEVELAND      FAIR      35  34  97 S6        30.18R WCI  30
GREENWOOD      CLEAR     31  29  92 S3        30.20R
GREENVILLE     CLEAR     33  30  88 S7        30.18R WCI  27
GRENADA        FAIR      30  30 100 CALM      30.20R
OLIVE BRANCH   CLEAR     32  32 100 S7        30.14R WCI  26
OXFORD         FAIR      28  28 100 MISG      30.19R
TUNICA         SUNNY     32  32 100 S6        30.17R WCI  26
$$

MSZ003>006-009-014>017-022>024-029>033-037>039-251400-
NORTHEAST MISSISSIPPI

CITY           SKY/WX    TMP DP  RH WIND       PRES   REMARKS
COLUMBUS AFB   CLEAR     31  31  99 CALM      30.18R
CORINTH        FAIR      39  36  87 SW3       30.15R
GOLDN TRIANGLE CLEAR     34  30  86 CALM      30.16R
STARKVILLE     FAIR      30  30 100 CALM      30.18R FOG
TUPELO         CLEAR     34  32  92 CALM      30.18R
$$

MSZ040-058-251400-
CENTRAL MISSISSIPPI

CITY           SKY/WX    TMP DP  RH WIND       PRES   REMARKS
JACKSON INTL   CLEAR     30  29  96 CALM      30.22R
JACKSON HAWKNS CLEAR     33  31  92 CALM      30.22R
MERIDIAN KEY   FOG       31  31 100 CALM      30.21R VSB 1/4
MERIDIAN NAS   CLEAR     31  30  96 CALM      30.21R
RAYMOND        FAIR      28  25  86 MISG      30.23R
VICKSBURG      FOG       31  28  89 CALM      30.23R VSB 3/4
$$

MSZ059>079-251400-
SOUTH MISSISSIPPI

CITY           SKY/WX    TMP DP  RH WIND       PRES   REMARKS
HATTIESBURG    CLEAR     32  30  92 CALM      30.25R
MCCOMB         CLEAR     30  28  92 CALM      30.23R
NATCHEZ        CLEAR     30  27  86 SE6       30.22R WCI  24
PINE BELT      CLEAR     32  30  93 CALM      30.24R
$$

MSZ080>082-251400-
COASTAL MISSISSIPPI

CITY           SKY/WX    TMP DP  RH WIND       PRES   REMARKS
BAY ST LOUIS   CLEAR     34  30  86 CALM      30.26
BILOXI         CLEAR     40  37  91 NW6       30.24R
PASCAGOULA     CLEAR     30  29  96 CALM      30.24R
GULFPORT       CLEAR     34  32  92 CALM      30.24R
$$


USA.gov is the U.S. government's official web portal to all federal, state and local government web resources and services.